This is the latest recevied weather packets stored in our database for station/object W4FXD. If no packets are shown the sender has not sent any weather packets the latest 10 day(s).
| Time | Temp. | Humidity | Pressure | Rain* | Wind** | Luminosity | Snow |
|---|---|---|---|---|---|---|---|
| 1777485251 | 20° C | 90% | 1012.1 hPa | 0 mm | - | 167 W/m² | - |
| 1777484948 | 20° C | 89% | 1012.1 hPa | 0 mm | - | 224 W/m² | - |
| 1777484645 | 20.56° C | 89% | 1012.1 hPa | 0 mm | - | 150 W/m² | - |
| 1777484341 | 20.56° C | 88% | 1012 hPa | 0 mm | - | 200 W/m² | - |
| 1777484037 | 20° C | 89% | 1012.2 hPa | 0 mm | - | 209 W/m² | - |
| 1777483734 | 20.56° C | 89% | 1012.2 hPa | 0 mm | - | 115 W/m² | - |
| 1777483430 | 20.56° C | 89% | 1012.2 hPa | 0 mm | - | 265 W/m² | - |
| 1777483125 | 20° C | 90% | 1012 hPa | 0 mm | - | 231 W/m² | - |
| 1777482822 | 20° C | 90% | 1012.4 hPa | 0 mm | - | 235 W/m² | - |
| 1777482518 | 20° C | 90% | 1012.2 hPa | 0 mm | - | 256 W/m² | - |
| 1777482216 | 19.44° C | 90% | 1012.2 hPa | 0 mm | - | 288 W/m² | - |
| 1777481913 | 19.44° C | 90% | 1012.6 hPa | 0 mm | - | 173 W/m² | - |
| 1777481611 | 19.44° C | 90% | 1012.8 hPa | 0 mm | - | 154 W/m² | - |
| 1777481307 | 19.44° C | 90% | 1012.6 hPa | 0 mm | - | 148 W/m² | - |
| 1777481004 | 19.44° C | 90% | 1012.4 hPa | 0 mm | - | 179 W/m² | - |
| 1777480700 | 19.44° C | 90% | 1012.7 hPa | 0 mm | - | 226 W/m² | - |
| 1777480397 | 19.44° C | 90% | 1012.8 hPa | 0 mm | - | 173 W/m² | - |
| 1777480093 | 19.44° C | 90% | 1012.6 hPa | 0 mm | - | 123 W/m² | - |
| 1777479789 | 19.44° C | 90% | 1012.9 hPa | 0 mm | - | 138 W/m² | - |
| 1777479487 | 18.89° C | 90% | 1013 hPa | 0 mm | - | 166 W/m² | - |
| 1777479184 | 18.89° C | 90% | 1012.7 hPa | 0 mm | - | 220 W/m² | - |
| 1777478880 | 18.89° C | 91% | 1012.9 hPa | 0 mm | - | 251 W/m² | - |
| 1777478576 | 18.33° C | 92% | 1012.9 hPa | 0 mm | - | 144 W/m² | - |
| 1777478274 | 18.33° C | 92% | 1012.8 hPa | 0 mm | - | 124 W/m² | - |
| 1777477970 | 18.33° C | 92% | 1013.2 hPa | 0 mm | - | 63 W/m² | - |
* Rain latest hour (hover to see other rain measurements)
** Current wind speed in m/s (hover to see current wind gust speed)